This is the latest recevied weather packets stored in our database for station/object W5MAI. If no packets are shown the sender has not sent any weather packets the latest 10 day(s).
| Time | Temp. | Humidity | Pressure | Rain* | Wind** | Luminosity | Snow |
|---|---|---|---|---|---|---|---|
| 1777761205 | 23.33° C | 40% | 1021.1 hPa | 0 mm | - | 485 W/m² | - |
| 1777760638 | 23.89° C | 41% | 1021.2 hPa | 0 mm | - | 520 W/m² | - |
| 1777760006 | 23.33° C | 41% | 1021.2 hPa | 0 mm | - | 550 W/m² | - |
| 1777758836 | 23.33° C | 41% | 1021.3 hPa | 0 mm | - | 617 W/m² | - |
| 1777758262 | 23.33° C | 43% | 1021.4 hPa | 0 mm | - | 645 W/m² | - |
| 1777757629 | 23.33° C | 41% | 1021.5 hPa | 0 mm | - | 682 W/m² | - |
| 1777757042 | 23.33° C | 44% | 1021.7 hPa | 0 mm | - | 701 W/m² | - |
| 1777756410 | 23.33° C | 42% | 1021.8 hPa | 0 mm | - | 742 W/m² | - |
| 1777755823 | 23.33° C | 44% | 1022.1 hPa | 0 mm | - | 763 W/m² | - |
| 1777755252 | 23.33° C | 45% | 1022.3 hPa | 0 mm | - | 786 W/m² | - |
| 1777754613 | 22.78° C | 44% | 1022.4 hPa | 0 mm | - | 810 W/m² | - |
| 1777754060 | 23.33° C | 46% | 1022.5 hPa | 0 mm | - | 830 W/m² | - |
| 1777753422 | 22.78° C | 44% | 1022.6 hPa | 0 mm | - | 849 W/m² | - |
| 1777752858 | 22.78° C | 47% | 1022.8 hPa | 0 mm | - | 874 W/m² | - |
| 1777752205 | 22.22° C | 48% | 1022.8 hPa | 0 mm | - | 884 W/m² | - |
| 1777751641 | 22.22° C | 46% | 1022.9 hPa | 0 mm | - | 900 W/m² | - |
| 1777751057 | 22.22° C | 46% | 1023 hPa | 0 mm | - | 918 W/m² | - |
| 1777750426 | 22.22° C | 50% | 1023 hPa | 0 mm | - | 930 W/m² | - |
| 1777749849 | 22.22° C | 45% | 1023 hPa | 0 mm | - | 940 W/m² | - |
| 1777749215 | 22.22° C | 50% | 1023 hPa | 0 mm | - | 949 W/m² | - |
| 1777748622 | 21.67° C | 51% | 1023.1 hPa | 0 mm | - | 951 W/m² | - |
| 1777748051 | 21.67° C | 52% | 1023.4 hPa | 0 mm | - | 970 W/m² | - |
| 1777747456 | 21.11° C | 52% | 1023.4 hPa | 0 mm | - | 1005 W/m² | - |
| 1777746860 | 20.56° C | 54% | 1023.4 hPa | 0 mm | - | 1007 W/m² | - |
| 1777745623 | 21.11° C | 58% | 1023.7 hPa | 0 mm | - | 1065 W/m² | - |
* Rain latest hour (hover to see other rain measurements)
** Current wind speed in m/s (hover to see current wind gust speed)